Tracking 29892 objects as of 21-Nov-2024
HD Live streaming from Space Station
objects crossing your sky now

STARLINK-31715

Track STARLINK-31715 now!
10-day predictions
STARLINK-31715 is classified as:


NORAD ID: 59384
Int'l Code: 2024-062L
Perigee: 455.9 km
Apogee: 457.9 km
Inclination: 53.2 °
Period: 93.6 minutes
Semi major axis: 6827 km
RCS: Unknown
Launch date: April 2, 2024
Source: United States (US)
Launch site: AIR FORCE WESTERN TEST RANGE (AFWTR)
Your satellite tracking list
Your tracking list is empty




NASA's NSSDC Master Catalog

Two Line Element Set (TLE):
1 59384U 24062L   24325.95541159  .00002356  00000-0  70722-4 0  9996
2 59384  53.1619 296.6018 0001419 107.5430 252.5729 15.38769687 37151
Source of the keplerian elements: AFSPC